TimeMDT,TemperatureF,Dew PointF,Humidity,Sea Level PressureIn,VisibilityMPH,Wind Direction,Wind SpeedMPH,Gust SpeedMPH,PrecipitationIn,Events,Conditions,WindDirDegrees,DateUTC
12:51 AM,51.1,30.9,46,29.81,10.0,WSW,36.8,44.9,N/A,,Clear,250,2013-10-31 06:51:00
1:51 AM,48.9,28.9,46,29.81,10.0,WSW,33.4,43.7,N/A,,Clear,250,2013-10-31 07:51:00
2:51 AM,48.9,23.0,36,29.82,10.0,WSW,34.5,47.2,N/A,,Clear,250,2013-10-31 08:51:00
3:51 AM,48.9,19.9,32,29.84,10.0,WSW,36.8,44.9,N/A,,Clear,240,2013-10-31 09:51:00
4:51 AM,48.9,19.9,32,29.87,10.0,West,41.4,51.8,N/A,,Clear,260,2013-10-31 10:51:00
5:51 AM,48.0,19.9,33,29.87,10.0,WSW,44.9,57.5,N/A,,Clear,250,2013-10-31 11:51:00
6:51 AM,46.0,21.9,39,29.91,10.0,WSW,38.0,52.9,N/A,,Clear,250,2013-10-31 12:51:00
7:51 AM,46.9,21.9,37,29.93,9.0,WSW,41.4,47.2,N/A,,Clear,250,2013-10-31 13:51:00
8:51 AM,50.0,21.0,32,29.95,9.0,WSW,31.1,42.6,N/A,,Clear,250,2013-10-31 14:51:00
9:51 AM,52.0,21.9,31,29.96,9.0,WSW,28.8,42.6,N/A,,Clear,250,2013-10-31 15:51:00
10:51 AM,55.0,21.9,28,29.99,9.0,WSW,26.5,35.7,N/A,,Clear,240,2013-10-31 16:51:00
11:51 AM,55.9,24.1,29,29.98,9.0,WSW,29.9,40.3,N/A,,Clear,250,2013-10-31 17:51:00
12:51 PM,59.0,24.1,26,29.94,9.0,WSW,29.9,38.0,N/A,,Clear,250,2013-10-31 18:51:00
1:51 PM,60.1,21.9,23,29.91,9.0,WSW,27.6,39.1,N/A,,Clear,250,2013-10-31 19:51:00
2:51 PM,60.1,21.9,23,29.88,8.0,WSW,28.8,42.6,N/A,,Clear,240,2013-10-31 20:51:00
3:51 PM,61.0,19.9,21,29.87,8.0,WSW,34.5,44.9,N/A,,Clear,250,2013-10-31 21:51:00
4:51 PM,59.0,18.0,20,29.87,8.0,WSW,32.2,46.0,N/A,,Clear,240,2013-10-31 22:51:00
5:51 PM,57.0,19.9,24,29.87,8.0,WSW,28.8,40.3,N/A,,Clear,250,2013-10-31 23:51:00
6:51 PM,54.0,16.0,22,29.90,10.0,WSW,28.8,44.9,N/A,,Clear,240,2013-11-01 00:51:00
7:51 PM,53.1,18.0,25,29.91,10.0,WSW,31.1,35.7,N/A,,Clear,250,2013-11-01 01:51:00
8:51 PM,53.1,14.0,21,29.91,10.0,WSW,24.2,34.5,N/A,,Clear,250,2013-11-01 02:51:00
9:51 PM,48.0,18.0,30,29.93,10.0,WSW,23.0,-,N/A,,Clear,250,2013-11-01 03:51:00
10:51 PM,48.0,17.1,29,29.92,10.0,WSW,20.7,-,N/A,,Clear,250,2013-11-01 04:51:00
11:51 PM,48.9,12.9,24,29.91,10.0,WSW,28.8,-,N/A,,Clear,250,2013-11-01 05:51:00